Theta_e
345 347 347 345 345 347 347 347 347 347 346 346 346 347 347 347 347 348 347 347 348 347 347 347 345 343 342 341 340 340 341 340 341 339 336 335 335 335 335 336 337 339 339 339 339 339 340 339 339 339 339 339 339 339 339 339 338 337 334 333 334 334 335 335 336 336 336 336 335 335 335 334 333 332 331 333 335 336 335 335 335 335 336 335 335
345 346 347 346 346 347 346 346 347 347 346 346 346 347 347 346 348 348 348 347 348 347 347 346 345 343 342 340 340 341 341 341 341 340 338 335 334 333 333 333 335 337 337 338 338 337 338 338 338 339 339 338 339 340 339 339 338 338 337 335 334 334 334 335 335 335 335 336 335 335 334 333 332 332 333 334 335 336 336 336 337 336 336 336 335
346 345 347 346 346 347 347 346 347 347 347 346 346 347 346 345 346 348 348 348 348 348 347 347 345 342 341 340 341 341 341 341 342 341 339 336 334 332 332 331 332 333 335 337 339 338 338 338 338 339 338 338 339 340 340 339 339 339 338 337 336 336 335 334 333 333 334 334 334 334 334 333 333 333 334 335 335 336 336 336 336 336 335 335 335
348 346 346 347 346 347 347 347 348 347 347 346 346 347 346 345 346 348 347 347 348 347 346 346 344 342 341 342 342 342 342 341 342 342 341 339 336 335 334 334 333 331 332 335 337 339 339 340 340 340 339 338 339 339 340 340 340 339 339 338 337 337 336 334 334 333 333 334 334 334 334 334 334 336 335 335 334 335 336 335 335 334 333 333 332
349 348 348 348 347 347 346 347 348 348 347 345 346 346 346 347 347 348 347 347 347 344 344 346 344 342 342 342 342 342 341 341 342 342 342 341 338 338 338 338 336 334 332 333 336 338 339 340 340 341 340 339 339 339 339 339 339 339 338 337 338 338 338 336 335 334 334 334 334 334 334 334 335 335 334 334 334 335 335 335 335 335 334 334 333
349 350 349 348 347 347 347 347 348 348 347 345 346 347 347 348 348 348 347 346 345 343 343 345 344 343 342 341 340 341 341 341 341 342 342 343 340 339 341 340 339 336 334 333 335 336 338 339 340 340 340 340 340 341 340 340 340 339 338 338 337 338 339 338 337 335 335 335 335 334 333 333 334 334 335 335 335 336 335 335 336 336 336 336 335
349 350 350 348 348 347 348 348 349 349 348 346 346 347 347 348 348 348 347 345 343 343 344 345 344 342 340 338 338 339 340 341 341 341 342 343 342 341 341 341 339 338 337 334 332 334 336 338 340 340 339 339 340 340 341 341 341 341 340 339 338 338 339 339 339 337 336 336 336 336 335 335 334 335 336 337 337 337 336 335 335 336 336 336 336
347 349 350 349 347 346 348 349 350 350 349 347 346 346 348 347 348 348 347 345 343 343 344 343 340 338 337 336 337 338 339 341 341 340 342 344 344 342 341 340 340 340 338 332 329 330 332 335 338 339 339 339 339 340 340 341 341 341 341 341 340 340 340 340 339 339 338 338 338 338 338 337 337 337 338 338 338 338 337 336 336 336 336 336 335
345 347 349 348 347 346 348 348 350 350 349 348 346 346 347 347 347 346 345 345 343 343 343 342 338 336 337 337 337 338 339 340 341 341 342 344 344 343 340 340 340 340 337 333 330 329 328 330 335 337 338 339 338 339 339 340 341 341 341 341 341 341 340 340 340 340 340 339 340 339 339 339 339 338 339 338 338 338 337 336 336 336 336 336 335
343 345 346 347 347 347 348 348 349 349 349 348 346 347 348 347 345 343 343 344 343 342 343 341 338 337 338 337 337 338 338 340 341 342 343 344 344 343 340 340 340 340 339 337 334 332 329 328 330 334 336 338 338 337 338 339 340 341 341 341 341 340 340 341 340 340 340 340 340 340 339 339 339 339 339 338 338 338 337 337 337 337 337 337 336
343 343 343 345 346 346 346 348 349 349 349 348 346 346 348 346 343 341 342 343 343 342 342 340 338 338 338 337 338 338 339 341 342 343 344 344 344 343 340 339 340 340 340 339 338 336 335 331 330 331 333 336 337 337 337 338 339 340 340 340 340 340 340 340 340 340 340 340 340 339 339 339 339 339 339 338 338 338 338 338 337 337 337 337 336
346 343 341 341 342 342 343 346 349 350 349 347 345 346 348 347 344 342 343 343 342 341 340 338 337 339 339 338 338 339 340 342 343 343 344 344 345 344 341 339 338 339 340 340 340 339 338 338 336 334 334 333 335 337 337 337 337 337 338 339 339 339 339 340 340 340 340 339 339 339 339 338 338 338 338 338 338 338 338 337 337 336 334 333 330
349 345 340 339 339 340 341 343 347 348 347 346 346 346 347 346 344 343 344 345 342 339 338 338 337 339 339 339 339 339 341 342 342 343 341 342 343 342 339 337 337 337 338 338 338 337 334 337 340 338 337 336 334 336 337 337 336 335 335 336 338 338 338 340 340 340 340 339 339 338 338 338 338 338 338 338 338 337 336 334 331 328 325 322 319
348 345 340 337 337 338 340 341 344 347 347 347 347 346 346 345 344 344 345 345 341 339 339 338 338 339 338 339 339 339 341 341 342 342 341 340 341 339 338 338 337 336 335 335 335 332 327 330 338 338 337 338 337 335 335 336 336 336 336 336 337 336 337 339 339 339 339 339 339 338 337 338 338 337 337 336 334 331 327 323 320 318 316 316 315
347 343 339 337 337 338 340 339 341 344 345 345 345 346 346 344 343 344 345 345 341 338 338 338 338 338 337 338 339 339 340 341 342 342 342 341 340 340 339 338 338 336 334 333 331 329 324 325 333 336 335 337 339 336 335 336 335 336 337 336 336 336 338 339 339 339 339 337 337 336 336 335 334 332 330 326 323 320 318 316 316 315 315 315 315
347 343 339 338 337 338 339 338 340 341 343 345 345 345 346 345 344 344 344 344 342 339 338 337 336 337 337 337 338 339 340 340 342 342 342 342 340 340 340 339 339 338 335 331 326 325 326 327 327 329 331 332 337 338 336 336 335 335 335 335 334 335 337 338 337 336 335 333 331 331 330 327 324 322 320 318 316 316 316 316 317 317 318 318 318
348 344 340 338 337 337 337 338 338 339 340 344 346 345 346 345 345 345 343 341 340 339 337 336 336 336 335 334 337 339 339 339 341 342 342 343 342 341 340 340 339 339 337 334 330 327 328 330 326 323 325 327 333 338 336 335 333 332 332 331 330 331 332 331 329 327 325 324 323 322 321 319 317 317 317 317 317 318 319 319 320 320 320 320 320
349 346 342 339 337 336 335 337 339 338 339 342 346 345 345 346 345 345 343 341 338 337 336 337 337 337 334 333 334 335 336 338 340 341 341 342 343 341 341 340 339 339 338 336 335 332 331 332 329 325 324 323 327 334 337 335 333 332 329 328 325 325 325 324 322 321 319 319 319 318 317 317 317 318 319 320 320 320 321 321 321 320 320 320 320
348 346 343 341 338 335 335 337 338 338 339 342 345 345 345 346 345 344 344 342 339 338 338 338 339 337 336 335 335 335 335 336 339 340 340 341 342 342 341 340 340 339 338 336 335 335 334 334 333 329 327 323 323 329 333 335 334 331 326 323 322 321 320 320 319 319 317 317 317 317 318 319 320 320 321 321 321 321 321 321 321 320 320 320 320
346 345 343 341 339 338 338 338 338 338 339 341 345 346 345 345 345 344 344 343 341 342 340 338 338 336 336 337 337 338 337 335 338 339 338 338 339 340 340 340 340 339 338 335 334 334 335 335 336 332 328 327 324 324 326 327 328 326 322 320 320 319 318 318 318 317 317 317 319 320 321 321 322 321 321 321 321 321 321 321 321 320 320 320 319
344 344 343 342 340 339 340 339 338 338 339 342 346 346 346 346 345 344 345 344 343 344 341 336 335 334 334 337 338 339 339 336 337 339 339 338 338 338 338 339 339 338 335 334 334 334 335 335 336 334 331 331 328 324 324 324 323 323 322 321 321 320 319 319 317 317 318 319 321 322 322 322 321 321 321 321 321 321 321 321 321 321 320 320 319
342 343 343 342 340 339 339 339 339 338 339 343 346 346 346 346 345 344 345 345 343 343 341 337 336 334 333 337 339 339 339 337 336 339 340 339 339 338 338 338 336 334 334 335 335 335 335 335 336 335 333 333 332 327 325 325 324 323 323 323 323 322 321 320 319 318 319 321 322 323 323 322 322 321 321 321 321 322 322 323 323 323 323 322 321
339 342 342 343 341 338 338 340 339 339 339 342 346 346 346 346 346 345 345 346 344 343 342 341 340 339 336 336 339 339 339 337 336 337 339 339 339 338 337 336 335 334 334 336 336 336 337 336 335 335 334 334 333 332 330 329 328 327 326 325 325 324 323 322 322 321 322 322 323 323 322 322 321 321 322 322 323 324 324 325 326 325 325 324 323
338 340 340 341 341 338 338 339 339 339 339 341 345 346 346 346 346 346 346 346 346 343 342 341 340 339 336 332 335 339 340 339 337 336 337 338 338 338 336 336 336 336 335 337 337 337 337 336 335 334 335 334 334 333 333 332 331 331 330 329 327 326 324 323 322 322 322 322 323 322 322 322 322 322 322 323 324 324 325 326 326 325 325 325 324
337 337 336 337 338 337 337 338 338 338 339 340 343 345 346 346 347 347 347 346 346 344 341 340 339 336 334 331 331 336 339 340 338 338 337 338 338 338 337 336 337 338 338 337 338 338 337 336 335 334 335 335 334 334 333 332 332 333 333 332 331 328 326 325 324 323 323 323 323 323 322 322 322 322 323 323 324 324 325 326 326 326 325 325 324
334 333 332 333 336 337 335 336 337 337 338 339 342 345 345 346 347 347 346 347 346 345 343 342 341 336 333 330 330 331 335 338 338 337 337 337 337 337 337 337 338 339 339 339 339 338 336 335 335 335 335 335 335 334 333 332 333 333 333 333 333 331 329 328 327 326 325 324 324 324 324 323 322 322 323 323 323 324 325 325 326 326 325 324 324
331 330 330 331 335 337 336 336 338 337 337 337 340 343 344 345 345 345 346 346 347 346 344 343 342 338 331 328 329 330 331 333 332 331 333 336 337 337 337 338 339 340 340 339 338 335 333 334 335 335 334 335 335 334 332 332 333 334 334 334 334 333 332 330 329 328 328 327 325 325 325 325 325 324 323 323 323 324 324 325 326 326 326 324 324
329 329 330 330 333 337 338 338 339 338 337 337 338 341 342 343 344 344 344 345 346 346 345 343 342 340 333 327 326 329 330 330 328 327 329 333 335 335 337 338 339 339 339 337 334 331 330 331 332 332 332 334 334 333 333 333 334 334 334 335 335 334 334 333 331 329 327 327 327 327 326 326 326 326 325 324 323 323 324 325 326 326 327 325 325
329 330 330 329 332 335 336 337 339 339 338 337 337 338 340 340 341 342 342 343 345 345 345 344 342 341 338 331 327 326 327 328 326 325 327 330 333 334 335 338 339 339 338 336 332 329 330 330 329 329 330 332 332 332 332 332 333 334 335 335 335 335 335 335 335 333 330 327 326 326 326 325 325 325 325 326 325 324 323 324 325 326 327 327 326
329 330 332 331 331 334 334 335 336 338 337 337 337 337 338 338 339 339 341 342 343 344 344 344 343 341 340 337 331 326 325 326 325 324 324 327 331 332 335 336 338 338 339 338 335 330 330 330 329 328 329 329 330 331 330 330 331 333 334 334 334 335 335 335 336 335 334 331 328 325 325 325 325 324 324 325 326 325 324 324 324 326 327 327 327
329 329 332 333 333 334 334 334 336 337 338 338 338 338 337 337 337 338 339 340 340 341 341 342 342 342 341 340 337 330 326 325 324 324 324 325 327 330 333 334 336 338 339 340 338 332 329 330 329 329 329 329 330 330 330 330 330 332 333 333 333 333 334 335 335 335 335 334 331 327 325 324 325 325 324 325 325 326 325 324 324 325 327 327 327
329 328 331 333 333 334 332 332 334 337 338 339 339 339 338 338 338 338 338 339 339 338 339 340 340 342 341 341 339 336 333 330 327 324 324 324 325 327 330 332 334 336 339 340 338 332 328 330 329 329 330 330 330 329 329 329 330 331 331 330 331 332 334 334 334 334 334 334 333 329 326 324 324 324 324 324 325 326 326 324 324 324 326 328 328
330 329 330 332 332 332 331 331 332 334 336 338 339 340 340 339 339 338 338 338 338 337 336 337 338 339 340 340 339 338 338 337 334 331 328 326 325 325 327 330 331 334 335 337 337 332 328 329 328 328 329 330 330 329 328 329 329 330 330 330 330 331 332 332 332 333 334 334 333 329 326 324 323 324 324 324 324 325 325 325 324 324 326 328 329
330 329 329 331 332 332 331 330 331 333 334 335 338 339 339 339 338 338 338 338 337 336 335 335 336 336 337 338 337 337 338 338 337 337 336 333 330 328 327 328 329 330 332 334 335 334 329 328 328 329 329 330 330 329 328 327 327 328 329 330 330 330 331 332 332 332 333 334 334 330 326 323 323 323 324 324 324 324 325 325 325 325 327 329 330
331 330 329 329 330 331 331 330 331 332 333 334 335 337 336 336 336 336 336 336 336 336 334 334 334 334 335 335 335 336 337 337 336 336 337 337 336 334 332 331 330 330 330 332 333 334 331 328 328 329 329 330 330 330 329 329 328 328 328 328 329 331 331 332 332 331 331 333 334 333 330 326 325 325 324 324 324 324 324 324 325 327 329 331 331
332 331 330 329 329 329 330 330 330 331 332 333 333 333 334 334 334 334 334 335 335 334 333 332 332 333 333 333 334 334 336 336 336 336 336 335 336 336 336 335 334 334 332 332 332 332 332 331 329 328 328 329 329 329 330 331 330 328 327 327 328 329 329 330 331 330 330 331 333 334 334 332 330 328 326 325 324 324 324 324 326 329 331 331 332
333 332 331 330 330 329 329 328 329 329 331 331 332 332 331 332 332 333 334 334 333 333 333 333 333 333 332 332 332 333 334 335 335 335 336 336 336 336 336 336 336 336 335 335 334 333 333 333 331 330 331 330 330 329 328 330 330 329 327 326 326 326 327 329 329 328 328 330 331 333 334 334 333 331 329 327 325 324 324 324 327 330 331 331 333
333 332 332 331 330 329 328 328 328 329 330 330 330 330 331 331 332 332 332 332 333 333 333 333 334 334 334 334 333 333 334 334 333 333 334 335 336 336 336 336 336 336 336 337 336 336 335 335 334 333 333 332 332 330 330 329 330 329 328 327 327 326 327 327 327 327 326 327 328 330 332 334 333 332 331 330 328 326 324 324 326 328 330 332 333
333 332 331 331 331 329 328 328 328 329 329 329 329 330 330 331 331 332 332 332 332 332 333 333 334 334 335 334 335 335 334 335 334 335 334 335 335 335 335 335 336 336 336 336 337 337 337 337 337 336 335 334 334 333 332 332 331 330 329 327 326 325 325 325 325 326 326 326 327 328 331 332 333 333 332 331 330 328 325 324 325 327 330 332 333
334 332 332 331 330 329 329 328 328 328 329 329 330 329 330 330 331 331 331 331 331 332 332 333 334 335 335 335 336 336 336 335 335 335 336 336 337 336 337 336 336 336 336 335 336 336 337 337 337 337 336 336 336 335 334 334 333 332 330 329 327 325 325 325 325 324 326 327 326 326 328 331 331 332 332 332 332 330 327 325 325 326 328 331 332
335 334 333 331 331 330 329 328 328 328 329 329 329 330 330 330 330 331 331 332 332 332 332 333 335 336 336 336 336 336 337 337 337 337 337 338 339 339 338 338 338 339 338 338 338 338 338 337 337 337 337 336 336 336 336 335 334 334 333 332 331 330 329 327 326 325 325 326 325 325 325 327 328 330 331 333 333 332 330 327 326 326 327 329 331
337 335 335 334 333 331 330 329 329 328 329 329 329 329 330 330 331 331 331 332 332 333 334 335 337 337 338 337 338 338 339 339 340 339 339 339 340 340 340 340 340 341 341 342 342 341 341 341 340 340 340 339 337 336 336 335 336 336 336 335 336 335 333 332 331 329 328 326 326 325 324 324 325 328 330 332 332 332 331 329 328 327 326 328 330
340 338 337 336 334 333 331 331 330 329 330 330 330 330 330 330 330 331 331 332 334 335 337 338 338 338 340 341 341 341 341 342 341 341 341 342 342 342 343 343 343 343 343 344 344 344 345 345 344 343 343 341 338 337 338 337 337 336 337 338 338 337 337 336 335 334 333 331 329 328 326 326 326 327 329 331 332 332 331 330 329 328 328 330 331
343 341 339 337 336 335 334 333 332 331 331 331 331 330 331 330 331 331 332 333 336 337 338 339 340 341 342 343 343 344 344 344 344 344 345 344 344 344 345 345 345 346 346 346 346 347 347 347 346 345 345 344 341 339 339 338 338 339 339 341 341 340 340 339 339 339 338 337 334 332 331 330 328 328 329 330 332 333 332 331 330 330 330 330 331
346 343 341 338 337 336 336 335 333 332 332 332 331 331 331 331 331 333 334 335 337 339 340 341 341 343 343 345 346 347 347 347 348 348 348 347 347 348 348 349 349 349 348 348 348 349 349 349 349 348 347 347 345 343 342 342 342 343 343 343 343 343 343 342 342 342 341 340 338 336 336 334 333 331 331 330 331 332 333 332 331 330 330 331 331
349 346 342 340 338 337 336 336 335 334 333 332 332 332 332 332 333 334 336 338 340 342 342 343 344 344 345 347 348 348 349 349 350 350 351 351 351 351 351 352 352 352 352 352 351 352 352 352 352 351 351 349 350 349 348 348 347 347 346 346 346 346 345 344 344 344 343 342 341 339 338 338 336 334 333 333 333 334 333 333 333 332 331 331 331
353 350 348 344 341 339 338 338 337 336 334 334 334 334 333 334 335 337 339 341 343 343 344 345 346 346 347 348 349 350 350 351 352 352 353 354 354 355 355 355 356 356 356 356 356 356 355 355 355 355 355 354 354 353 353 352 351 351 351 349 349 348 346 346 346 346 346 346 344 341 341 342 339 336 335 334 334 335 335 334 335 334 331 330 331
357 355 353 350 346 343 341 340 339 337 334 334 335 335 335 336 338 341 342 343 344 344 345 346 347 348 349 350 351 352 352 353 353 354 355 356 356 357 358 358 358 358 359 359 358 358 358 358 358 358 358 357 357 356 356 355 354 354 352 350 350 348 346 345 347 347 348 348 347 344 344 345 344 341 339 337 335 336 337 336 336 335 332 330 331
360 358 356 354 350 348 345 343 341 338 335 336 337 336 337 338 341 343 344 345 346 346 346 347 348 349 350 351 352 353 354 355 355 356 356 357 358 359 359 360 360 360 360 360 360 360 359 359 360 359 359 359 358 357 356 356 356 356 352 351 353 350 345 344 346 347 348 348 348 347 345 345 347 345 342 340 337 336 337 337 337 336 333 330 331
362 360 359 357 354 351 349 346 343 341 337 336 337 338 339 341 343 345 346 346 347 348 348 349 350 351 352 353 354 355 355 355 356 357 358 359 360 360 361 361 362 362 362 361 360 360 360 360 360 360 359 358 357 357 355 355 356 356 354 354 355 351 343 341 343 345 346 347 347 347 345 344 346 346 344 341 338 337 337 337 337 337 334 331 331
363 362 361 359 358 356 354 351 349 346 343 340 340 340 341 342 345 346 348 348 349 350 350 351 352 352 353 353 355 355 357 357 357 359 359 360 361 362 362 362 362 362 362 362 360 361 360 359 359 358 357 357 356 354 353 354 355 355 354 355 356 353 345 340 339 340 342 347 348 347 344 343 344 344 343 340 339 339 338 337 337 338 337 334 333
Wind_Speed
8 8 7 7 7 6 5 4 4 3 3 3 3 3 3 3 3 3 3 3 4 6 7 8 9 8 8 7 6 5 3 3 4 3 2 3 2 2 2 3 4 5 5 6 6 6 5 5 5 4 4 4 4 4 4 3 3 3 2 2 2 3 3 3 3 3 3 3 2 1 1 1 1 0 1 2 4 5 5 5 6 6 7 7 7
8 7 6 6 5 5 4 4 4 3 2 2 2 2 2 2 2 3 3 3 5 7 8 8 8 8 8 7 6 4 3 3 3 2 1 3 2 2 3 3 3 4 4 5 6 6 6 5 5 4 4 4 5 4 4 3 4 4 3 3 2 3 3 3 4 4 4 4 3 3 3 2 2 2 2 3 4 4 5 5 6 6 7 7 8
9 8 7 6 5 4 4 4 4 3 2 1 1 1 2 2 2 2 3 4 5 7 8 9 8 8 8 7 5 4 3 2 2 2 2 3 2 1 2 3 3 4 4 5 5 5 5 5 4 4 5 5 5 5 4 4 4 4 4 4 4 3 3 3 4 4 4 5 4 4 4 3 3 2 3 4 4 4 5 6 6 6 7 8 8
9 8 7 6 5 5 4 4 4 3 2 1 2 2 2 1 1 2 3 4 5 7 9 10 9 7 7 5 4 3 2 2 2 3 3 2 2 2 2 1 2 3 4 5 5 5 5 5 5 5 5 5 5 5 5 4 4 5 5 5 5 5 4 4 4 4 4 5 5 4 4 4 4 3 4 4 4 5 5 6 6 7 7 8 8
9 8 7 6 5 5 4 4 3 3 2 1 2 2 2 2 2 3 4 6 7 9 10 10 9 7 5 4 4 3 2 2 2 3 4 3 2 2 1 1 1 2 3 5 6 6 6 5 5 5 6 5 6 6 5 5 5 5 5 5 5 5 5 5 5 5 5 5 5 5 5 5 5 5 5 5 5 5 5 6 7 7 8 8 8
9 8 8 6 5 5 5 5 3 3 2 1 2 2 3 3 3 3 4 7 9 10 9 8 7 7 6 5 4 4 3 3 2 3 3 3 2 1 1 0 1 1 1 3 5 6 7 6 6 6 6 5 6 6 6 7 6 6 6 6 5 6 6 6 6 5 6 5 5 5 5 5 5 5 5 5 6 7 7 7 8 8 9 9 9
9 9 8 7 6 5 5 5 4 4 3 2 3 3 3 3 3 4 5 8 10 10 8 6 6 6 6 5 5 6 5 4 2 2 2 2 2 1 0 0 1 1 1 2 3 5 7 7 7 7 6 6 6 7 7 7 6 6 6 6 6 6 6 6 6 6 6 6 6 6 5 6 6 6 6 7 7 8 9 9 10 10 10 10 10
10 10 9 7 7 6 6 6 5 5 4 3 3 3 3 3 3 4 7 10 11 10 7 5 6 5 4 6 6 7 6 4 2 1 0 1 1 1 1 1 1 0 1 1 2 3 5 7 8 8 7 7 7 7 7 7 7 7 7 7 7 7 7 6 7 7 7 7 7 7 6 6 7 7 8 8 8 9 10 11 10 10 11 11 11
11 10 9 8 7 6 7 7 6 6 5 5 4 3 3 4 4 5 8 12 12 10 7 6 7 5 5 5 6 5 4 2 2 1 1 1 1 1 1 1 1 0 0 1 1 2 3 5 7 8 7 7 7 8 7 7 8 7 6 6 7 7 7 8 8 8 8 8 7 8 8 8 8 8 8 9 9 9 10 11 10 10 10 11 11
13 11 10 10 8 8 8 8 7 7 6 6 5 3 3 5 6 7 9 11 11 9 7 6 7 6 6 5 4 3 2 1 2 2 1 1 1 1 1 1 1 0 0 0 1 2 2 3 4 6 7 7 8 8 8 7 7 7 6 6 8 8 8 8 9 8 8 8 7 8 8 9 9 8 9 9 9 9 10 10 10 10 10 11 11
13 13 13 12 11 9 10 9 8 8 7 6 5 5 4 5 8 10 10 10 9 8 6 6 7 8 6 5 3 2 1 2 2 1 1 2 1 1 1 1 1 1 0 1 1 1 1 2 3 4 5 6 7 7 7 7 6 7 6 6 7 7 7 8 9 8 8 9 8 8 9 9 9 9 9 9 9 9 10 10 10 10 10 10 10
14 15 15 15 13 11 11 11 9 8 7 6 6 5 5 6 8 11 11 9 7 6 5 6 8 9 6 5 4 2 1 2 1 1 2 2 2 2 2 2 2 1 1 1 1 2 2 1 1 3 3 4 5 6 6 6 6 6 7 7 6 7 7 8 8 8 7 8 8 8 9 9 9 9 9 8 9 9 9 9 8 8 7 7 7
14 16 16 16 15 13 12 12 10 8 7 6 6 5 6 7 8 11 12 9 7 5 5 7 10 9 8 7 5 4 3 2 2 3 2 2 3 3 4 4 3 2 1 1 1 1 3 2 2 2 2 3 5 6 6 6 6 7 7 8 8 8 7 7 8 7 7 7 7 8 8 7 7 8 7 7 7 7 6 6 5 5 5 6 6
15 16 17 17 16 14 13 12 11 9 8 8 7 6 6 7 7 10 11 10 8 7 8 9 9 8 8 8 7 5 4 4 4 3 3 4 5 5 4 3 3 4 3 1 1 2 3 2 2 2 2 3 4 5 6 7 7 8 7 8 9 9 8 8 8 7 6 7 7 7 6 6 6 6 6 5 5 5 4 4 4 4 5 5 6
15 16 17 17 17 16 14 13 12 11 10 9 8 7 7 7 7 9 11 12 10 10 10 9 9 8 8 8 8 7 6 6 6 5 4 4 5 4 2 1 1 3 4 3 2 2 2 1 2 3 3 3 3 5 6 6 7 8 8 8 8 8 8 9 8 7 6 6 6 5 5 5 5 4 4 4 4 4 4 4 4 4 4 5 5
15 17 18 18 17 16 15 14 13 12 11 10 9 7 7 7 7 9 10 12 13 12 11 10 10 10 10 10 9 9 9 9 9 8 7 6 5 4 3 2 2 2 2 3 3 3 3 3 2 3 4 4 4 4 5 6 7 7 7 7 6 6 7 8 7 7 6 6 5 4 4 4 4 4 4 4 4 4 3 3 3 4 4 5 5
15 16 18 18 18 17 16 14 13 13 12 11 9 8 8 7 8 9 10 12 13 13 11 11 10 10 12 11 10 10 10 9 9 10 9 9 7 6 5 4 4 4 3 2 1 2 3 3 2 2 3 4 5 5 5 6 6 6 5 5 5 5 6 6 6 5 5 5 5 4 4 4 4 4 4 4 4 3 3 3 3 4 4 5 6
15 15 16 17 17 17 16 15 14 13 13 12 10 9 9 8 8 9 9 11 13 13 12 11 10 10 11 11 9 10 10 10 11 11 10 10 10 9 8 6 6 6 6 5 3 1 1 2 2 1 3 4 5 6 6 6 7 6 6 6 6 6 6 6 6 6 5 5 5 5 5 5 4 4 4 4 4 4 4 4 4 5 5 5 6
17 15 15 15 16 17 17 15 14 14 13 13 11 10 9 9 9 9 10 12 14 13 13 12 12 12 13 12 11 10 10 11 13 11 10 10 11 11 10 9 8 8 7 7 5 4 4 3 3 2 2 4 5 6 7 7 7 7 7 7 7 7 7 7 7 6 6 6 6 6 6 5 5 5 5 5 4 4 4 4 5 5 5 6 6
18 17 16 15 16 17 17 16 15 14 14 14 12 10 10 10 10 10 11 12 13 12 12 13 14 14 14 14 12 11 10 12 13 11 8 8 9 10 11 10 10 9 8 7 7 7 7 6 4 2 0 1 3 5 6 7 8 8 7 7 7 7 7 7 7 7 6 6 6 6 6 6 5 5 5 5 5 5 5 5 5 5 5 6 6
20 18 17 16 16 17 17 16 15 15 15 14 13 12 11 11 12 11 11 12 13 12 11 11 12 14 15 14 13 12 11 12 14 13 11 9 8 8 9 10 11 10 9 7 7 7 8 8 6 4 2 1 1 2 3 4 5 6 6 6 5 6 6 6 7 7 7 7 7 7 6 6 6 5 5 5 5 4 4 5 5 5 5 5 6
20 19 18 17 16 17 18 17 16 16 16 15 14 14 13 13 12 12 12 12 12 12 11 10 11 12 14 15 14 14 13 12 14 15 14 13 11 9 8 9 10 9 9 7 7 7 7 8 8 6 5 4 1 1 2 2 2 3 4 4 5 5 6 6 6 7 7 7 7 7 7 7 6 6 5 5 4 4 4 4 4 4 4 4 5
21 19 19 18 17 18 19 18 17 17 17 16 15 14 14 13 13 12 13 13 13 13 12 11 11 13 15 17 17 15 14 13 12 13 13 13 12 10 8 9 10 10 9 9 9 9 9 10 9 8 7 6 4 2 2 2 2 3 3 4 5 6 6 6 6 7 7 8 8 8 8 7 7 6 5 5 5 5 4 4 4 3 3 4 4
23 22 20 19 18 19 20 19 19 18 18 17 16 15 14 14 14 13 13 13 13 14 14 13 12 12 14 17 19 18 16 14 13 12 12 12 11 11 9 9 11 11 11 12 12 12 12 11 10 9 8 7 7 6 5 4 4 5 5 4 5 6 7 7 7 7 8 8 8 8 8 8 7 7 6 6 5 5 5 4 4 3 4 4 5
25 24 22 20 19 20 21 20 19 18 18 18 17 17 16 16 15 15 14 14 13 13 14 13 13 13 12 14 18 19 18 16 15 14 14 13 13 13 12 12 13 12 12 14 15 15 14 12 10 10 9 9 9 8 7 6 6 6 6 6 5 6 7 8 8 8 8 8 8 9 8 8 8 8 7 7 7 6 6 5 5 5 5 5 5
25 24 23 21 20 21 22 21 19 19 19 18 18 18 17 17 17 16 15 14 14 14 14 13 14 13 12 14 16 18 18 18 17 17 17 16 16 15 14 15 15 14 13 14 15 16 14 11 10 11 10 9 9 9 8 7 7 7 7 7 7 6 7 8 9 9 9 10 9 9 9 9 9 9 9 9 8 8 8 7 6 6 6 6 6
24 24 23 22 21 21 21 21 20 20 19 19 19 18 18 18 18 17 16 15 15 15 14 14 14 13 13 14 15 16 17 18 18 17 17 17 17 16 15 16 16 15 14 14 15 14 12 11 12 12 12 10 9 9 8 8 8 9 9 10 9 8 8 9 10 10 11 11 11 11 11 11 11 11 11 10 10 10 9 9 8 8 7 7 7
24 24 24 23 22 22 22 21 21 20 20 20 20 19 19 19 18 18 17 16 16 16 15 15 15 14 13 14 15 15 15 16 17 17 16 16 17 17 16 17 17 16 16 16 15 12 10 11 12 12 12 11 10 9 10 11 10 11 13 13 12 11 11 11 11 11 12 12 12 12 12 12 12 12 12 12 12 11 11 10 10 9 9 8 8
23 23 24 23 23 24 23 22 21 21 21 21 21 20 20 20 20 19 18 17 17 17 16 16 16 15 14 14 15 15 14 15 16 17 16 16 17 18 18 18 17 17 17 17 15 11 10 11 12 11 10 11 11 11 12 13 12 12 14 15 15 14 13 13 13 13 13 14 14 14 13 13 14 14 14 14 13 13 12 12 11 11 10 10 10
24 23 23 23 24 24 23 22 22 22 22 22 22 22 22 21 21 20 19 18 18 18 17 17 16 16 16 16 16 16 15 15 16 17 18 18 18 20 21 21 20 19 19 20 19 16 13 13 12 11 11 12 13 13 14 14 13 13 15 16 16 16 16 16 17 17 16 16 16 16 15 15 14 14 14 14 14 13 13 13 12 12 12 12 12
26 24 23 23 23 23 22 21 21 22 22 23 23 23 23 22 22 22 21 20 20 19 19 18 17 17 18 18 17 17 16 16 17 17 19 20 20 21 22 23 22 22 21 21 24 22 16 15 14 13 14 14 15 16 16 15 15 16 16 17 18 17 18 19 19 19 19 19 19 18 17 17 16 15 15 15 14 14 14 14 14 14 14 14 14
28 26 25 25 24 23 22 21 21 22 22 22 23 23 23 23 22 22 22 21 22 21 20 19 19 19 20 20 20 18 17 18 19 19 20 21 22 22 23 24 24 24 23 23 27 27 22 19 19 18 18 18 18 19 19 19 18 18 19 19 19 20 20 21 21 21 21 21 21 21 20 19 18 17 17 16 16 16 16 15 15 15 15 16 16
30 28 27 27 26 25 24 23 22 23 23 23 23 23 24 24 23 23 22 23 23 23 22 21 21 21 22 22 22 20 19 20 21 21 22 23 24 25 25 26 25 25 25 26 29 30 28 25 22 21 21 22 22 22 22 23 22 22 22 22 22 22 23 23 23 22 22 22 22 22 22 21 20 20 19 18 18 18 18 18 17 17 17 17 17
32 30 29 28 28 27 26 25 24 24 25 24 24 24 25 25 24 24 24 24 24 24 24 23 22 23 23 23 23 22 22 23 23 23 24 24 25 27 27 28 28 27 27 28 29 32 33 30 27 25 24 25 26 25 25 26 25 25 26 25 25 25 25 25 25 24 23 23 23 23 23 22 21 21 21 21 20 20 20 20 19 19 19 18 18
33 32 31 30 29 29 28 27 26 26 26 26 26 26 27 26 26 26 25 25 25 24 24 24 23 23 24 25 25 24 24 25 26 26 26 26 27 28 29 30 31 31 30 30 31 33 36 35 33 31 29 28 29 28 28 28 28 28 29 29 28 28 27 27 27 26 25 24 24 23 23 24 23 23 22 22 22 22 22 22 21 20 20 20 19
34 33 32 32 32 31 30 29 29 28 28 28 28 28 28 28 28 27 27 27 26 26 25 24 24 24 25 25 25 24 25 27 27 27 28 28 28 29 30 30 31 32 32 32 33 35 37 39 38 36 34 33 33 32 32 32 31 31 32 32 31 31 31 30 30 29 27 26 26 25 25 25 25 25 24 24 24 24 24 23 23 22 21 21 20
36 35 34 34 34 33 32 32 31 30 30 30 29 29 29 29 29 29 29 29 29 29 28 28 27 26 27 26 26 25 26 28 28 28 28 29 29 30 31 31 31 32 32 33 35 36 38 40 40 39 39 38 37 36 35 36 36 35 35 35 35 35 34 33 33 32 30 29 29 28 27 27 27 26 26 26 26 26 26 25 24 23 23 22 21
37 37 36 36 35 35 34 33 32 32 32 31 31 31 30 30 30 30 30 30 30 31 31 31 31 30 30 30 29 28 29 29 29 29 28 29 29 30 31 31 31 32 33 33 35 36 39 41 41 41 41 41 41 40 38 38 39 39 38 38 38 38 37 37 37 35 33 32 32 31 30 30 29 28 27 27 27 27 28 27 26 25 24 23 22
38 38 38 37 36 36 35 35 34 34 33 33 33 32 32 31 31 31 31 31 32 32 32 32 32 32 32 32 32 32 32 32 31 31 30 30 30 31 31 31 31 33 34 35 35 37 38 40 41 41 41 41 42 42 40 40 41 41 41 41 41 40 40 40 39 38 36 35 34 33 33 32 31 30 29 29 29 28 29 28 27 26 25 24 23
38 38 38 38 37 37 36 36 36 35 35 35 35 34 34 33 33 33 33 33 33 33 33 33 33 33 33 33 34 34 34 34 33 33 33 33 33 33 32 31 32 33 35 35 36 38 39 40 41 41 41 42 42 42 41 41 42 41 40 41 42 42 41 40 40 39 38 38 37 36 35 34 34 33 32 31 31 30 30 30 29 28 27 26 24
38 38 38 38 38 38 37 37 37 37 37 37 37 36 35 35 35 34 34 34 34 34 34 34 34 34 34 34 34 34 34 34 34 35 35 35 36 36 35 34 35 36 36 37 38 39 40 42 42 42 43 44 44 42 42 41 41 40 39 41 43 41 41 41 41 40 40 40 39 39 38 36 36 35 34 34 33 31 30 30 30 30 29 27 25
38 38 38 39 39 39 39 38 38 38 39 38 37 37 36 36 36 35 35 35 35 35 35 35 35 35 34 34 34 34 34 34 34 34 34 35 36 37 36 36 37 38 39 40 40 41 41 43 44 43 45 46 45 43 43 42 41 41 41 43 43 42 41 43 43 41 40 40 41 42 39 37 37 37 37 36 34 32 32 31 31 30 29 28 26
39 38 39 39 40 40 39 39 39 40 40 39 38 37 37 37 36 36 36 36 36 36 36 36 36 35 35 35 34 34 34 34 34 33 33 34 34 35 35 35 36 38 39 41 41 41 42 44 44 44 46 48 46 44 44 43 42 42 43 43 44 43 42 43 43 41 38 38 40 42 40 37 37 38 38 38 36 34 33 33 32 31 29 28 27
39 39 40 40 40 40 40 40 40 41 40 39 38 37 37 37 36 36 37 37 38 38 37 37 37 36 36 36 35 35 34 34 33 34 34 34 33 34 34 35 35 37 38 40 41 41 42 43 45 46 47 48 47 45 44 44 43 44 44 44 44 44 43 43 43 41 37 36 39 42 41 39 38 38 39 38 36 35 34 33 32 32 30 29 28
39 40 40 40 40 40 40 41 41 41 41 39 38 38 37 37 36 37 37 38 39 39 38 38 38 37 37 37 36 36 34 34 34 34 34 34 34 34 35 36 36 37 38 39 41 41 41 43 46 48 47 47 48 47 44 43 45 46 47 47 46 45 45 44 44 42 39 38 39 41 42 40 38 40 41 39 36 35 34 33 32 33 32 31 30
39 40 40 40 40 40 41 41 41 41 41 40 39 38 38 37 37 38 38 38 39 39 39 39 39 38 38 37 38 36 34 34 35 34 34 34 35 35 36 37 38 38 38 40 40 40 41 43 46 47 47 46 48 48 46 46 48 48 49 49 48 48 48 46 45 43 42 41 39 39 42 42 39 39 41 38 36 36 35 33 32 32 33 32 32
39 39 40 40 40 41 41 41 42 42 41 40 40 39 39 38 38 39 39 38 39 39 39 39 39 39 38 38 39 38 36 36 35 35 35 35 36 37 38 39 40 39 39 40 40 40 40 41 43 45 44 43 44 45 45 46 47 48 48 49 49 50 49 47 47 46 45 45 43 41 43 43 40 40 40 37 35 36 35 34 33 32 33 33 33
37 38 39 39 40 41 41 41 42 42 40 39 40 40 39 38 39 39 39 38 38 38 38 38 38 38 38 39 39 39 38 38 36 36 36 36 38 39 41 42 42 42 42 41 40 41 40 40 41 42 41 40 40 40 42 44 46 47 49 50 50 51 50 48 49 50 49 49 47 46 47 45 42 43 41 37 37 36 36 36 34 33 33 34 34
35 36 36 37 38 39 40 41 42 42 41 39 39 39 38 39 39 39 39 38 38 38 38 37 37 37 38 38 39 39 39 39 38 36 36 37 39 41 42 43 44 45 45 43 43 44 43 42 42 42 43 42 40 39 39 41 42 45 51 54 52 51 48 46 48 49 49 51 51 49 49 48 45 46 44 40 38 38 37 38 37 35 34 34 35
31 32 32 33 34 35 37 39 40 41 40 38 38 38 38 38 39 38 38 38 38 38 37 36 36 37 37 37 37 38 39 38 37 36 36 37 39 41 42 43 45 46 46 45 45 45 45 45 44 44 44 43 41 39 39 41 41 43 50 54 54 52 47 44 46 49 49 52 53 51 53 53 50 48 47 44 42 41 40 40 39 36 35 35 36
29 29 29 31 32 32 34 36 37 38 38 37 37 37 36 37 37 37 37 37 38 38 37 36 36 36 36 36 36 37 38 38 37 37 36 37 39 41 41 44 47 48 47 45 44 45 46 45 42 40 41 42 42 42 43 45 44 44 48 51 53 55 50 44 45 52 54 53 51 50 54 55 51 50 50 47 46 45 43 41 40 39 37 36 37
Wind_Direction
152 147 143 146 142 138 139 139 136 136 138 135 156 174 177 178 176 185 201 193 174 175 181 182 182 174 165 157 143 129 99 66 70 89 122 123 133 175 182 175 167 175 188 193 200 208 212 213 214 211 216 220 210 208 210 207 205 206 199 190 190 190 197 208 213 224 223 224 230 238 288 291 294 342 23 12 3 358 359 0 3 4 3 0 358
161 163 156 153 149 139 139 146 146 147 145 142 163 184 202 203 202 209 214 204 181 175 182 187 185 175 165 160 152 147 126 86 72 76 107 113 130 173 180 184 178 180 191 194 201 208 212 216 218 218 223 227 224 221 220 224 221 218 227 225 225 221 218 222 228 239 242 246 254 262 278 279 290 311 335 341 338 338 339 342 345 344 344 344 340
164 171 169 164 163 153 146 152 152 150 141 147 176 193 229 235 209 206 214 209 180 170 181 190 188 175 165 165 163 161 151 125 76 72 97 100 114 148 170 187 189 194 202 202 206 207 205 207 214 222 230 232 232 236 235 237 233 227 230 232 237 241 243 243 241 250 251 255 263 269 278 280 291 306 320 324 321 327 329 332 337 335 335 335 331
166 173 178 173 172 171 170 167 160 158 149 163 210 205 226 229 152 168 191 196 175 159 167 180 188 180 171 177 179 175 161 149 98 94 100 93 108 118 117 157 185 204 213 211 211 209 203 203 209 218 230 233 231 237 240 242 244 240 235 232 236 237 244 252 252 256 256 259 267 272 278 281 286 295 304 309 311 318 321 325 331 331 331 331 330
175 180 185 183 185 186 191 192 178 179 179 189 216 208 223 225 172 175 184 183 172 157 154 168 184 186 190 203 206 208 189 168 125 102 92 94 113 106 90 86 129 185 218 219 216 213 211 208 212 221 229 234 233 237 242 240 241 245 244 237 238 239 242 248 251 257 258 259 267 271 277 279 282 289 297 301 305 312 314 315 319 323 326 326 327
186 190 195 195 200 200 202 207 201 205 213 207 210 209 217 217 198 194 189 176 167 162 161 171 190 203 215 216 206 204 192 186 155 105 87 98 112 98 85 74 115 142 209 221 219 217 218 216 220 229 230 235 239 239 243 243 240 243 248 244 243 246 246 248 251 256 260 262 266 272 279 280 280 286 295 301 305 308 308 309 312 316 318 318 318
193 196 203 204 207 206 203 207 209 218 228 222 226 218 199 202 204 203 195 176 167 173 180 190 208 217 214 193 182 181 173 179 173 104 84 108 109 104 112 161 138 144 204 208 210 215 222 222 225 231 231 235 243 244 245 250 250 247 248 247 245 248 249 251 255 259 259 260 262 267 276 282 283 285 289 296 300 304 305 308 311 313 313 312 312
208 204 208 212 213 212 210 213 216 224 232 232 243 225 190 198 214 208 194 182 179 185 190 197 202 197 187 172 167 168 158 161 179 344 356 151 139 175 196 192 161 126 196 195 196 206 221 225 225 229 231 238 244 244 244 250 255 251 251 254 251 250 255 259 259 260 259 259 262 266 272 278 282 285 287 293 297 302 306 308 311 313 313 313 312
219 215 215 217 221 221 218 221 221 226 230 233 252 244 196 200 212 202 186 185 190 193 194 200 195 177 167 162 152 152 142 148 192 262 281 234 256 231 195 191 181 76 156 177 199 209 222 226 225 224 227 236 241 242 241 246 256 256 255 258 258 256 261 265 263 264 265 267 270 273 278 278 280 286 289 294 298 302 308 311 315 317 316 314 312
223 225 225 224 227 229 227 224 219 224 230 232 251 249 203 197 202 186 175 186 196 195 198 206 195 175 160 149 137 132 119 158 222 246 242 235 254 225 199 184 165 91 212 215 231 230 225 227 229 225 224 230 236 241 239 238 250 259 260 260 261 263 265 269 269 269 271 273 274 275 279 280 282 289 291 294 296 299 307 312 316 316 313 312 311
225 230 232 230 230 231 231 229 221 224 233 233 245 242 202 195 197 184 178 189 201 199 203 205 188 174 160 137 116 98 120 185 220 239 170 162 183 195 168 167 158 133 230 288 293 296 261 232 231 228 225 225 230 236 236 236 241 251 259 259 261 266 270 271 268 268 269 272 276 276 278 280 282 285 286 290 293 296 302 306 308 309 310 312 313
227 233 234 232 232 234 234 234 229 227 232 237 243 235 203 198 199 195 192 196 206 203 194 192 179 168 155 133 118 110 139 188 190 150 144 158 177 159 138 134 132 148 181 225 267 326 345 318 254 234 229 226 230 232 232 235 239 241 246 250 255 263 269 269 265 265 268 270 274 276 278 281 284 283 283 288 290 293 297 298 301 305 308 311 314
228 233 233 231 231 233 234 234 232 227 230 241 242 222 203 206 206 205 202 200 204 189 167 179 177 167 156 144 133 131 140 155 168 149 122 134 154 139 126 112 91 94 145 170 160 2 352 330 297 279 252 237 235 232 229 232 238 241 238 240 244 248 256 263 263 263 266 269 268 271 276 280 282 279 279 281 283 286 288 289 294 300 303 306 311
230 230 230 229 228 230 231 231 232 230 229 240 245 227 210 213 214 214 208 202 194 173 167 176 179 177 169 158 153 156 162 172 176 166 142 135 142 143 132 108 72 66 74 95 76 6 345 318 283 295 288 257 243 231 228 229 233 237 234 235 237 237 240 250 257 258 260 265 265 268 273 272 270 266 265 264 265 269 270 276 285 290 299 305 313
233 228 224 225 228 229 230 230 232 234 236 243 249 236 222 217 218 220 213 207 196 183 183 191 192 188 179 173 175 179 187 196 194 187 179 165 158 166 164 133 47 51 57 54 51 45 25 351 265 273 277 265 253 237 232 230 229 231 232 233 235 233 235 241 250 253 253 258 259 259 261 254 248 243 242 243 247 254 259 268 279 290 301 311 315
234 228 222 222 227 230 230 232 233 237 242 246 247 236 228 225 222 221 214 209 205 197 199 209 213 209 200 194 188 193 203 204 200 199 206 210 202 205 233 270 297 340 16 39 64 88 73 31 303 271 269 263 254 246 238 233 231 233 236 236 233 231 233 239 245 246 247 251 249 242 236 231 230 230 233 239 245 252 261 272 285 299 305 310 313
231 229 224 223 227 230 232 233 234 236 240 245 246 236 233 231 225 221 213 207 206 204 204 208 215 224 225 212 194 201 213 208 205 211 215 218 218 223 242 264 279 294 298 302 54 95 77 36 7 286 269 259 247 244 238 232 234 240 244 243 241 235 233 236 237 237 240 241 232 225 223 224 226 230 233 237 245 255 270 283 290 296 299 303 307
225 225 223 224 227 230 233 234 235 234 236 243 246 237 234 234 228 224 215 207 207 206 204 207 212 218 223 221 211 216 222 212 211 219 221 219 223 229 239 253 265 278 283 274 274 288 301 14 18 306 270 254 241 240 240 238 242 249 253 249 246 243 240 240 238 236 235 229 220 216 219 220 221 225 231 239 250 261 272 280 286 291 298 302 304
220 219 219 222 227 230 233 233 234 232 233 239 242 239 237 236 233 228 220 212 213 215 211 212 218 214 213 219 223 230 232 221 216 219 222 220 220 225 233 242 254 269 280 276 275 281 282 296 331 325 289 261 243 237 239 240 245 252 257 257 251 247 244 242 240 235 229 220 214 211 212 214 220 226 235 245 255 263 269 276 283 290 295 298 300
221 220 219 221 225 229 232 233 232 230 230 234 238 240 237 235 234 230 225 218 218 222 219 218 220 215 213 218 225 235 238 230 224 224 230 227 219 221 229 237 249 264 274 274 270 272 275 281 301 315 31 307 258 241 242 245 248 252 254 256 255 254 251 245 241 233 223 215 211 211 214 218 227 234 240 248 254 260 268 274 279 284 287 291 295
225 224 221 220 224 229 231 232 231 229 230 232 235 237 234 233 234 232 231 228 224 224 220 218 219 217 218 221 226 234 235 230 227 230 238 246 241 235 236 242 254 264 264 263 258 260 269 273 281 270 229 314 304 222 233 242 249 251 251 257 259 259 257 248 242 232 222 219 218 220 224 228 233 238 240 243 249 253 260 267 271 277 281 284 287
225 224 219 218 222 227 230 232 231 231 232 231 232 234 232 233 234 234 236 237 233 230 222 215 215 218 222 226 230 233 232 227 223 225 234 245 253 258 256 257 268 269 259 261 264 263 269 269 268 260 254 274 284 173 184 201 234 243 245 258 262 263 261 253 245 237 230 228 232 236 236 237 237 238 239 239 244 248 252 258 262 269 275 276 279
226 222 218 218 222 225 228 230 231 233 233 232 232 232 232 233 234 233 236 240 240 237 234 224 217 217 222 227 233 238 241 242 236 231 235 244 252 257 255 260 273 271 263 270 275 271 269 266 263 258 256 262 266 257 234 225 246 248 247 255 259 260 260 257 251 246 244 241 244 246 243 240 237 235 237 238 241 243 245 253 261 271 277 277 278
228 226 221 219 222 222 224 227 229 231 233 232 232 231 232 233 234 233 235 240 242 241 240 237 232 225 223 228 232 235 242 250 254 250 248 254 258 258 257 258 265 269 269 272 274 274 270 265 261 257 254 255 261 269 268 265 264 259 260 263 261 257 255 257 255 251 251 250 250 250 246 243 240 239 241 244 248 251 254 263 274 286 290 287 284
229 228 224 220 221 222 222 224 227 229 231 232 231 231 231 232 234 235 235 237 240 242 242 244 245 239 234 235 234 235 239 244 251 253 253 253 254 256 258 258 258 261 265 266 269 272 272 269 263 256 254 255 259 268 274 275 270 265 268 275 275 266 256 257 260 258 255 253 252 252 251 251 250 250 250 253 257 259 263 270 278 289 295 296 297
229 228 226 223 222 222 222 224 227 229 230 231 232 231 231 233 235 236 237 237 238 242 244 246 248 244 240 239 239 239 240 243 249 252 252 251 252 254 254 251 253 256 261 267 270 271 274 277 273 265 263 263 264 268 268 266 268 271 276 281 286 284 273 266 267 266 262 259 257 254 256 259 259 258 257 258 261 264 268 272 278 287 295 301 304
231 229 229 227 223 220 220 222 225 228 230 231 232 232 232 233 235 237 238 237 237 240 243 244 245 243 240 239 239 240 240 245 251 251 251 252 254 255 251 247 252 261 270 276 277 279 283 285 280 273 271 272 270 265 260 256 262 270 274 277 282 288 288 283 278 273 268 266 264 261 260 260 258 258 259 260 263 266 270 272 276 280 288 295 300
234 232 230 228 224 219 218 219 223 227 230 231 232 232 233 234 236 237 237 236 237 239 241 241 243 242 240 239 239 239 238 243 248 247 247 248 249 250 247 245 251 264 276 279 279 282 287 286 284 283 280 279 277 268 258 253 254 262 269 273 277 282 287 290 289 283 276 271 269 267 265 262 260 259 259 260 261 265 268 271 274 276 280 287 292
235 231 229 228 225 222 222 221 222 225 228 231 232 233 234 236 237 239 239 238 239 240 241 241 241 242 242 241 241 240 237 238 241 243 244 243 243 243 244 244 247 258 269 273 274 274 276 279 282 286 288 289 288 281 268 260 259 262 268 273 278 281 285 288 289 288 284 278 274 271 268 267 265 263 260 259 259 261 265 269 273 275 278 282 286
234 229 228 228 225 225 226 225 223 224 226 229 231 232 234 236 238 240 241 241 242 242 241 242 242 243 244 243 243 241 237 237 238 240 243 244 242 241 243 243 243 249 258 267 273 274 271 270 272 277 284 289 291 289 281 274 272 270 271 276 280 283 286 286 287 288 287 286 282 277 274 272 270 267 263 262 260 262 265 269 273 275 276 279 284
234 228 226 225 224 224 225 226 224 223 224 226 229 231 233 235 238 240 242 243 244 243 241 242 243 244 246 247 246 243 240 240 241 240 242 246 246 245 244 244 244 247 253 262 270 275 276 272 275 279 281 283 284 283 280 276 275 275 274 276 279 283 285 284 283 285 286 288 287 284 280 277 275 272 269 269 268 268 269 270 273 274 275 278 282
234 230 227 225 225 226 227 228 226 223 223 224 227 230 232 234 237 239 241 243 246 246 244 243 243 244 247 248 249 248 246 246 247 246 246 247 249 250 248 248 248 249 252 256 263 274 281 279 279 280 279 278 277 276 276 275 273 273 272 272 275 277 279 278 278 280 283 286 288 286 282 280 278 276 274 274 275 274 274 274 274 274 274 276 280
235 231 229 228 228 230 233 234 231 227 226 226 226 229 231 234 236 239 241 243 246 248 248 246 245 245 247 249 250 251 251 251 252 252 252 252 252 253 252 253 253 253 253 255 260 272 280 280 279 279 277 275 273 272 273 274 273 273 273 273 273 274 274 275 275 276 278 282 284 285 282 280 278 277 276 276 275 275 275 274 273 272 271 273 277
235 233 231 230 231 233 235 236 234 231 229 228 228 229 231 235 237 240 242 243 245 248 249 249 248 248 250 251 252 252 253 254 255 255 255 256 255 256 255 256 258 258 257 258 261 269 277 280 280 278 276 274 272 272 273 273 274 274 274 274 273 273 274 275 275 275 276 278 281 282 281 279 276 275 275 274 273 273 273 272 271 268 267 270 274
235 234 233 233 234 235 236 237 236 233 231 230 230 231 233 235 238 240 242 244 246 247 249 250 251 252 253 254 255 255 254 255 257 257 258 258 258 259 259 259 261 263 262 261 262 266 273 278 280 278 277 276 276 276 276 276 276 274 272 273 273 273 273 273 274 274 273 274 276 277 278 277 276 274 273 272 271 270 270 269 267 263 264 267 271
235 235 235 236 236 238 239 239 238 236 234 233 233 234 236 237 239 240 241 243 246 248 250 252 253 254 256 256 258 259 258 259 260 260 260 261 261 262 263 263 264 266 266 264 265 267 271 276 279 279 279 278 278 279 279 279 278 276 274 273 272 272 272 272 273 273 272 272 272 272 273 273 274 273 272 271 270 269 268 267 264 261 262 265 268
235 236 237 237 238 238 239 240 240 240 239 238 238 238 238 239 240 242 243 245 247 249 251 253 253 255 256 258 260 260 261 262 263 263 263 263 264 265 267 268 268 269 269 268 268 269 270 274 279 281 281 280 280 280 280 280 280 280 278 276 275 273 273 272 272 273 273 271 270 270 269 270 271 272 272 271 270 268 267 265 262 260 260 262 266
235 236 237 238 238 239 239 240 241 242 242 243 243 243 242 242 243 244 245 247 249 251 252 253 254 254 256 259 261 261 261 263 264 265 265 265 266 267 268 270 272 273 272 271 270 270 270 274 278 281 282 282 282 282 282 281 281 281 280 278 276 274 272 272 272 273 273 273 272 271 270 269 270 272 272 272 270 268 267 265 262 260 260 261 264
236 237 237 238 239 239 240 241 241 242 244 245 246 246 246 245 246 247 247 248 250 252 254 255 256 256 257 259 260 261 262 263 264 265 265 266 267 268 269 272 274 274 274 274 273 271 272 274 276 280 282 283 283 284 284 284 282 281 280 279 277 276 274 273 274 274 273 273 274 274 272 271 271 272 272 271 269 266 265 263 261 260 259 259 262
237 238 238 239 240 241 242 243 243 244 246 247 248 248 249 249 249 250 251 252 252 253 255 256 258 259 260 261 261 262 263 263 264 265 266 267 268 268 269 271 272 273 274 275 275 275 274 275 276 279 281 282 282 282 284 283 282 282 283 282 281 281 280 277 277 277 275 274 275 275 274 273 272 272 271 270 269 267 265 262 260 258 258 258 260
239 239 240 241 242 242 243 244 245 246 247 248 248 249 250 251 252 253 254 255 256 257 258 259 259 261 262 263 264 265 266 267 267 268 267 268 269 269 270 271 272 273 274 275 276 277 277 277 278 279 280 280 280 281 282 281 282 285 287 285 283 284 284 282 281 279 277 276 275 275 274 273 273 272 270 269 268 266 265 262 260 258 257 257 259
240 241 241 242 243 243 244 245 247 248 248 249 249 250 251 253 254 256 257 259 260 261 262 263 263 264 265 266 268 269 270 271 271 271 271 270 270 270 271 272 273 274 275 276 277 278 279 279 280 281 280 279 280 281 282 282 284 286 285 284 284 285 285 283 283 282 280 278 277 276 275 274 273 271 270 268 267 265 263 261 259 258 256 256 257
241 242 243 244 244 244 245 246 247 249 249 249 250 251 253 254 256 258 259 261 263 264 265 266 268 269 270 271 273 274 274 275 275 275 275 274 274 274 274 274 274 275 276 277 278 279 280 281 281 282 281 281 282 282 283 284 285 285 285 286 286 286 285 284 284 286 286 284 281 278 278 277 274 272 271 269 267 265 263 261 259 258 256 254 254
242 243 244 245 245 245 246 247 248 249 250 250 251 253 254 256 257 259 260 262 264 265 267 269 271 273 274 275 276 277 277 277 278 279 279 279 279 279 279 278 278 277 277 277 278 278 279 280 282 282 281 283 284 284 284 286 287 287 287 287 286 286 286 284 285 289 293 292 286 282 282 282 278 275 273 272 271 269 266 264 259 256 255 253 252
244 245 245 246 246 247 247 248 249 250 251 252 253 254 256 257 258 259 260 261 263 266 268 270 273 275 276 277 278 278 279 280 281 282 282 283 284 284 284 283 281 280 280 279 279 278 279 279 280 281 283 284 285 287 290 291 289 288 288 287 288 288 286 286 288 293 295 294 288 285 286 285 282 279 277 275 274 272 269 265 260 254 252 252 250
246 246 246 247 247 248 248 249 250 252 253 253 255 256 257 258 259 260 261 262 264 266 268 271 273 275 276 277 278 279 281 282 282 284 285 286 288 288 288 286 285 285 284 283 282 282 281 280 280 282 286 286 287 290 293 291 289 288 289 289 290 289 288 289 291 292 290 288 286 283 283 284 282 280 278 277 275 274 271 268 263 256 251 250 249
247 248 248 249 249 249 250 250 252 253 253 254 256 258 259 260 261 262 263 264 265 267 268 270 272 274 275 276 277 279 280 281 283 284 286 288 289 289 288 288 288 289 288 288 289 288 286 285 284 285 289 290 290 292 294 291 289 289 288 287 288 287 285 284 284 284 284 283 282 277 276 280 281 276 276 276 274 273 271 268 264 257 250 247 246
249 250 250 250 250 251 251 252 253 253 253 255 257 258 260 262 262 263 264 265 266 267 269 270 271 273 274 275 276 278 280 281 283 285 287 288 288 288 288 289 289 290 290 291 292 291 290 290 289 289 291 292 292 293 294 291 289 287 284 281 281 278 274 274 276 278 279 279 277 274 273 276 277 273 272 272 269 267 266 264 261 256 249 244 242
248 249 249 251 251 252 253 253 253 254 254 256 257 259 261 262 263 264 265 266 267 268 269 271 271 273 274 274 276 277 279 282 284 287 288 289 288 288 289 290 290 290 290 291 292 292 292 292 292 293 294 294 294 294 292 287 284 282 276 275 277 272 264 263 268 273 276 275 273 271 269 269 269 267 267 266 263 261 259 258 256 253 247 243 240
249 250 251 252 253 253 254 254 255 257 258 259 260 261 263 263 263 264 266 267 268 269 270 272 272 273 274 275 277 278 280 282 284 286 287 287 286 287 288 289 289 289 290 291 291 293 293 293 294 294 294 294 293 292 288 284 282 278 271 272 277 272 259 253 262 272 274 272 271 268 265 264 264 263 263 262 258 256 254 253 252 248 243 240 238
250 251 252 252 253 253 254 256 257 258 260 262 262 263 264 264 264 265 266 267 268 269 271 273 274 275 277 278 279 280 282 284 286 287 288 287 286 286 287 287 286 287 291 292 291 293 293 290 288 289 291 292 292 291 291 290 288 282 273 272 276 272 259 250 257 266 267 268 271 268 262 262 262 260 261 259 255 253 252 249 246 244 240 236 234